User: anonymous   Login
Location: ????
(32.1228°N, 34.8377°E)
Time: 09:53:35
(UTC+00:00)
Language:

Cosmos 1980 Rocket - Orbit

View from above orbital plane
View from above orbital plane
View from above satellite
View from above satellite

Ground track
Ground track

The orbit data is extracted from the following two-line orbital elements,

1 19650U 88102B   20336.15484813 -.00000157  00000-0 -55383-4 0  9991
2 19650  71.0001 239.3681 0012282  55.2088 305.0189 14.15792394654474
Epoch (UTC): 01 December 2020 03:42:58
Eccentricity: 0.0012282
inclination: 71.0001°
perigee height: 831 km
apogee height: 848 km
right ascension of ascending node: 239.3681°
argument of perigee: 55.2088°
revolutions per day: 14.15792394
mean anomaly at epoch: 305.0189°
orbit number at epoch: 65447

The dashed part of the orbit path shows where the satellite is in the earth's shadow,  

DLR